Time,TemperatureF,DewpointF,PressureIn,WindDirection,WindDirectionDegrees,WindSpeedMPH,WindSpeedGustMPH,Humidity,HourlyPrecipIn,Conditions,Clouds,dailyrainin,SoftwareType,DateUTC
2013-03-08 00:02:00,50.0,45.0,30.12,NNE,26,0.0,0.0,83,0.00,,,0.00,,2013-03-08 05:02:00,
2013-03-08 00:12:00,50.0,45.0,30.12,NNE,26,0.0,0.0,83,0.00,,,0.00,,2013-03-08 05:12:00,
2013-03-08 00:22:00,50.0,45.0,30.12,NNE,26,0.0,0.0,83,0.00,,,0.00,,2013-03-08 05:22:00,
2013-03-08 00:33:00,49.0,44.0,30.12,NNE,26,0.0,0.0,83,0.00,,,0.00,,2013-03-08 05:33:00,
2013-03-08 00:42:00,49.0,44.0,30.12,NNE,26,0.0,0.0,83,0.00,,,0.00,,2013-03-08 05:42:00,
2013-03-08 00:52:00,49.0,44.0,30.12,NNE,26,0.0,0.0,83,0.00,,,0.00,,2013-03-08 05:52:00,
2013-03-08 01:02:00,49.0,44.0,30.11,NNE,26,0.0,1.0,83,0.00,,,0.00,,2013-03-08 06:02:00,
2013-03-08 01:11:00,49.0,44.0,30.11,NNE,26,0.0,1.0,83,0.00,,,0.00,,2013-03-08 06:11:00,
2013-03-08 01:22:00,49.0,44.0,30.11,NNE,26,0.0,2.0,83,0.00,,,0.00,,2013-03-08 06:22:00,
2013-03-08 01:32:00,50.0,45.0,30.11,North,0,1.0,3.0,83,0.00,,,0.00,,2013-03-08 06:32:00,
2013-03-08 01:42:00,50.0,45.0,30.11,North,0,1.0,3.0,83,0.00,,,0.00,,2013-03-08 06:42:00,
2013-03-08 01:52:00,50.0,45.0,30.11,North,0,1.0,2.0,83,0.00,,,0.00,,2013-03-08 06:52:00,
2013-03-08 02:01:00,51.0,46.0,30.11,NNW,330,2.0,5.0,83,0.00,,,0.00,,2013-03-08 07:01:00,
2013-03-08 02:11:00,51.0,46.0,30.11,NNW,330,2.0,5.0,83,0.00,,,0.00,,2013-03-08 07:11:00,
2013-03-08 02:22:00,50.0,45.0,30.11,NW,305,2.0,6.0,83,0.00,,,0.00,,2013-03-08 07:22:00,
2013-03-08 02:32:00,50.0,45.0,30.10,NW,305,3.0,6.0,83,0.00,,,0.00,,2013-03-08 07:32:00,
2013-03-08 02:42:00,50.0,45.0,30.10,NW,305,3.0,6.0,83,0.00,,,0.00,,2013-03-08 07:42:00,
2013-03-08 02:51:00,50.0,45.0,30.10,NW,305,3.0,6.0,83,0.00,,,0.00,,2013-03-08 07:51:00,
2013-03-08 03:01:00,50.0,45.0,30.09,WNW,301,2.0,7.0,83,0.00,,,0.00,,2013-03-08 08:01:00,
2013-03-08 03:11:00,50.0,45.0,30.09,WNW,301,2.0,7.0,83,0.00,,,0.00,,2013-03-08 08:11:00,
2013-03-08 03:22:00,50.0,45.0,30.09,WNW,303,3.0,7.0,83,0.00,,,0.00,,2013-03-08 08:22:00,
2013-03-08 03:32:00,50.0,45.0,30.09,NW,304,3.0,8.0,83,0.00,,,0.00,,2013-03-08 08:32:00,
2013-03-08 03:42:00,50.0,45.0,30.09,NW,304,3.0,8.0,83,0.00,,,0.00,,2013-03-08 08:42:00,
2013-03-08 03:52:00,49.0,44.0,30.09,NW,310,2.0,8.0,84,0.00,,,0.00,,2013-03-08 08:52:00,
2013-03-08 04:03:00,50.0,45.0,30.08,NW,305,2.0,6.0,83,0.00,,,0.00,,2013-03-08 09:03:00,
2013-03-08 04:11:00,50.0,45.0,30.08,NW,305,2.0,6.0,83,0.00,,,0.00,,2013-03-08 09:11:00,
2013-03-08 04:21:00,50.0,45.0,30.08,NW,319,3.0,6.0,83,0.00,,,0.00,,2013-03-08 09:21:00,
2013-03-08 04:32:00,50.0,45.0,30.08,NW,324,3.0,6.0,83,0.00,,,0.00,,2013-03-08 09:32:00,
2013-03-08 04:42:00,50.0,45.0,30.08,NW,324,3.0,6.0,83,0.00,,,0.00,,2013-03-08 09:42:00,
2013-03-08 04:52:00,50.0,45.0,30.09,WNW,286,3.0,9.0,83,0.00,,,0.00,,2013-03-08 09:52:00,
2013-03-08 05:01:00,50.0,45.0,30.08,NW,313,4.0,9.0,84,0.00,,,0.00,,2013-03-08 10:01:00,
2013-03-08 05:11:00,50.0,45.0,30.08,NW,313,4.0,9.0,84,0.00,,,0.00,,2013-03-08 10:11:00,
2013-03-08 05:21:00,50.0,45.0,30.08,NW,317,2.0,7.0,83,0.00,,,0.00,,2013-03-08 10:21:00,
2013-03-08 05:32:00,50.0,45.0,30.09,NW,316,2.0,6.0,83,0.00,,,0.00,,2013-03-08 10:32:00,
2013-03-08 05:42:00,50.0,45.0,30.09,NW,316,2.0,6.0,83,0.00,,,0.00,,2013-03-08 10:42:00,
2013-03-08 05:51:00,50.0,45.0,30.09,NW,311,3.0,6.0,83,0.00,,,0.00,,2013-03-08 10:51:00,
2013-03-08 06:01:00,50.0,45.0,30.09,NW,305,5.0,7.0,83,0.00,,,0.00,,2013-03-08 11:01:00,
2013-03-08 06:11:00,50.0,45.0,30.09,NW,305,5.0,7.0,83,0.00,,,0.00,,2013-03-08 11:11:00,
2013-03-08 06:21:00,50.0,45.0,30.09,NW,309,5.0,8.0,83,0.00,,,0.00,,2013-03-08 11:21:00,
2013-03-08 06:32:00,49.0,44.0,30.10,NW,307,4.0,7.0,83,0.00,,,0.00,,2013-03-08 11:32:00,
2013-03-08 06:42:00,49.0,44.0,30.10,NW,307,4.0,7.0,83,0.00,,,0.00,,2013-03-08 11:42:00,
2013-03-08 06:52:00,49.0,44.0,30.10,NW,319,4.0,10.0,83,0.00,,,0.00,,2013-03-08 11:52:00,
2013-03-08 07:02:00,49.0,44.0,30.10,NW,326,4.0,9.0,84,0.00,,,0.00,,2013-03-08 12:02:00,
2013-03-08 07:11:00,49.0,44.0,30.10,NW,326,4.0,9.0,84,0.00,,,0.00,,2013-03-08 12:11:00,
2013-03-08 07:22:00,49.0,44.0,30.11,NW,320,3.0,9.0,84,0.00,,,0.00,,2013-03-08 12:22:00,
2013-03-08 07:32:00,50.0,45.0,30.12,NW,312,3.0,7.0,83,0.00,,,0.00,,2013-03-08 12:32:00,
2013-03-08 07:43:00,50.0,45.0,30.12,NW,312,3.0,7.0,83,0.00,,,0.00,,2013-03-08 12:43:00,
2013-03-08 07:52:00,50.0,45.0,30.12,NW,312,2.0,7.0,83,0.00,,,0.00,,2013-03-08 12:52:00,
2013-03-08 08:02:00,51.0,46.0,30.12,NW,313,4.0,9.0,83,0.00,,,0.00,,2013-03-08 13:02:00,
2013-03-08 08:11:00,51.0,46.0,30.12,NW,313,4.0,9.0,83,0.00,,,0.00,,2013-03-08 13:11:00,
2013-03-08 08:22:00,51.0,46.0,30.13,NNW,334,5.0,10.0,83,0.00,,,0.00,,2013-03-08 13:22:00,
2013-03-08 08:32:00,52.0,47.0,30.14,NNW,327,4.0,6.0,83,0.00,,,0.00,,2013-03-08 13:32:00,
2013-03-08 08:42:00,52.0,47.0,30.14,NNW,327,4.0,6.0,83,0.00,,,0.00,,2013-03-08 13:42:00,
2013-03-08 08:52:00,52.0,47.0,30.14,NNW,329,3.0,7.0,83,0.00,,,0.00,,2013-03-08 13:52:00,
2013-03-08 09:03:00,54.0,49.0,30.14,NW,315,3.0,6.0,82,0.00,,,0.00,,2013-03-08 14:03:00,
2013-03-08 09:12:00,54.0,49.0,30.14,NW,315,3.0,6.0,82,0.00,,,0.00,,2013-03-08 14:12:00,
2013-03-08 09:22:00,55.0,49.0,30.14,NW,314,3.0,5.0,81,0.00,,,0.00,,2013-03-08 14:22:00,
2013-03-08 09:32:00,56.0,50.0,30.14,NW,322,2.0,5.0,79,0.00,,,0.00,,2013-03-08 14:32:00,
2013-03-08 09:42:00,56.0,50.0,30.14,NW,322,2.0,5.0,79,0.00,,,0.00,,2013-03-08 14:42:00,
2013-03-08 09:52:00,57.0,50.0,30.14,NNW,329,3.0,5.0,78,0.00,,,0.00,,2013-03-08 14:52:00,
2013-03-08 10:03:00,60.0,50.0,30.14,NNW,327,4.0,9.0,70,0.00,,,0.00,,2013-03-08 15:03:00,
2013-03-08 10:12:00,60.0,49.0,30.14,NW,311,4.0,7.0,68,0.00,,,0.00,,2013-03-08 15:12:00,
2013-03-08 10:22:00,60.0,49.0,30.14,NW,311,4.0,7.0,68,0.00,,,0.00,,2013-03-08 15:22:00,
2013-03-08 10:32:00,60.0,49.0,30.14,WNW,298,4.0,9.0,66,0.00,,,0.00,,2013-03-08 15:32:00,
2013-03-08 10:42:00,60.0,49.0,30.14,WNW,298,4.0,9.0,66,0.00,,,0.00,,2013-03-08 15:42:00,
2013-03-08 10:53:00,61.0,48.0,30.14,WNW,302,5.0,7.0,63,0.00,,,0.00,,2013-03-08 15:53:00,
2013-03-08 11:02:00,61.0,48.0,30.14,WNW,295,5.0,9.0,63,0.00,,,0.00,,2013-03-08 16:02:00,
2013-03-08 11:11:00,61.0,48.0,30.14,WNW,295,5.0,9.0,63,0.00,,,0.00,,2013-03-08 16:11:00,
2013-03-08 11:22:00,62.0,50.0,30.14,NW,320,3.0,9.0,64,0.00,,,0.00,,2013-03-08 16:22:00,
2013-03-08 11:32:00,63.0,48.0,30.14,NW,309,3.0,6.0,58,0.00,,,0.00,,2013-03-08 16:32:00,
2013-03-08 11:42:00,63.0,48.0,30.14,NW,309,3.0,6.0,58,0.00,,,0.00,,2013-03-08 16:42:00,
2013-03-08 11:52:00,64.0,47.0,30.14,NNW,338,5.0,10.0,53,0.00,,,0.00,,2013-03-08 16:52:00,
2013-03-08 12:03:00,67.0,49.0,30.13,NE,53,3.0,10.0,53,0.00,,,0.00,,2013-03-08 17:03:00,
2013-03-08 12:11:00,67.0,49.0,30.13,NE,53,3.0,10.0,53,0.00,,,0.00,,2013-03-08 17:11:00,
2013-03-08 12:21:00,66.0,48.0,30.13,NE,43,2.0,5.0,53,0.00,,,0.00,,2013-03-08 17:21:00,
2013-03-08 12:32:00,66.0,49.0,30.12,East,88,1.0,5.0,55,0.00,,,0.00,,2013-03-08 17:32:00,
2013-03-08 12:42:00,66.0,49.0,30.12,East,88,1.0,5.0,55,0.00,,,0.00,,2013-03-08 17:42:00,
2013-03-08 12:52:00,67.0,50.0,30.12,NE,36,3.0,9.0,55,0.00,,,0.00,,2013-03-08 17:52:00,
2013-03-08 13:02:00,68.0,50.0,30.11,ENE,71,4.0,8.0,52,0.00,,,0.00,,2013-03-08 18:02:00,
2013-03-08 13:11:00,68.0,50.0,30.11,ENE,71,4.0,8.0,52,0.00,,,0.00,,2013-03-08 18:11:00,
2013-03-08 13:22:00,67.0,50.0,30.11,East,81,5.0,7.0,55,0.00,,,0.00,,2013-03-08 18:22:00,
2013-03-08 13:32:00,66.0,50.0,30.09,ESE,103,5.0,9.0,57,0.00,,,0.00,,2013-03-08 18:32:00,
2013-03-08 13:42:00,66.0,50.0,30.09,ESE,103,5.0,9.0,57,0.00,,,0.00,,2013-03-08 18:42:00,
2013-03-08 13:52:00,67.0,51.0,30.09,NE,42,3.0,9.0,57,0.00,,,0.00,,2013-03-08 18:52:00,
2013-03-08 14:01:00,68.0,50.0,30.08,East,86,3.0,9.0,52,0.00,,,0.00,,2013-03-08 19:01:00,
2013-03-08 14:11:00,68.0,50.0,30.08,East,86,3.0,9.0,52,0.00,,,0.00,,2013-03-08 19:11:00,
2013-03-08 14:22:00,69.0,50.0,30.08,East,85,4.0,10.0,50,0.00,,,0.00,,2013-03-08 19:22:00,
2013-03-08 14:32:00,68.0,50.0,30.08,NE,42,3.0,10.0,52,0.00,,,0.00,,2013-03-08 19:32:00,
2013-03-08 14:42:00,68.0,50.0,30.08,NE,42,3.0,10.0,52,0.00,,,0.00,,2013-03-08 19:42:00,
2013-03-08 14:52:00,71.0,50.0,30.08,NE,40,7.0,13.0,47,0.00,,,0.00,,2013-03-08 19:52:00,
2013-03-08 15:01:00,68.0,51.0,30.06,NE,45,7.0,14.0,55,0.00,,,0.00,,2013-03-08 20:01:00,
2013-03-08 15:11:00,68.0,51.0,30.06,NE,45,7.0,14.0,55,0.00,,,0.00,,2013-03-08 20:11:00,
2013-03-08 15:22:00,69.0,52.0,30.06,NNE,13,8.0,15.0,54,0.00,,,0.00,,2013-03-08 20:22:00,
2013-03-08 15:32:00,68.0,51.0,30.06,NNE,26,6.0,16.0,55,0.00,,,0.00,,2013-03-08 20:32:00,
2013-03-08 15:42:00,68.0,51.0,30.06,NNE,26,6.0,16.0,55,0.00,,,0.00,,2013-03-08 20:42:00,
2013-03-08 15:52:00,68.0,51.0,30.06,NE,40,8.0,18.0,55,0.00,,,0.00,,2013-03-08 20:52:00,
2013-03-08 16:02:00,68.0,51.0,30.06,NNE,22,9.0,15.0,54,0.00,,,0.00,,2013-03-08 21:02:00,
2013-03-08 16:11:00,68.0,51.0,30.06,NNE,22,9.0,15.0,54,0.00,,,0.00,,2013-03-08 21:11:00,
2013-03-08 16:22:00,67.0,51.0,30.06,NNE,29,9.0,17.0,56,0.00,,,0.00,,2013-03-08 21:22:00,
2013-03-08 16:32:00,66.0,50.0,30.06,NE,35,9.0,17.0,56,0.00,,,0.00,,2013-03-08 21:32:00,
2013-03-08 16:42:00,66.0,50.0,30.06,NE,35,9.0,17.0,56,0.00,,,0.00,,2013-03-08 21:42:00,
2013-03-08 16:52:00,66.0,50.0,30.06,NE,34,9.0,17.0,56,0.00,,,0.00,,2013-03-08 21:52:00,
2013-03-08 17:01:00,65.0,48.0,30.06,NE,42,7.0,17.0,55,0.00,,,0.00,,2013-03-08 22:01:00,
2013-03-08 17:11:00,65.0,48.0,30.06,NE,42,7.0,17.0,55,0.00,,,0.00,,2013-03-08 22:11:00,
2013-03-08 17:22:00,65.0,50.0,30.06,NNE,28,10.0,17.0,58,0.00,,,0.00,,2013-03-08 22:22:00,
2013-03-08 17:32:00,64.0,50.0,30.06,NE,44,7.0,14.0,60,0.00,,,0.00,,2013-03-08 22:32:00,
2013-03-08 17:42:00,64.0,50.0,30.06,NE,44,7.0,14.0,60,0.00,,,0.00,,2013-03-08 22:42:00,
2013-03-08 17:52:00,64.0,51.0,30.06,NNE,29,8.0,15.0,62,0.00,,,0.00,,2013-03-08 22:52:00,
2013-03-08 18:02:00,63.0,51.0,30.06,NNE,24,9.0,15.0,66,0.00,,,0.00,,2013-03-08 23:02:00,
2013-03-08 18:12:00,63.0,51.0,30.06,NNE,24,9.0,15.0,66,0.00,,,0.00,,2013-03-08 23:12:00,
2013-03-08 18:22:00,63.0,52.0,30.06,NE,36,10.0,15.0,67,0.00,,,0.00,,2013-03-08 23:22:00,
2013-03-08 18:32:00,62.0,51.0,30.08,North,9,8.0,12.0,68,0.00,,,0.00,,2013-03-08 23:32:00,
2013-03-08 18:42:00,62.0,51.0,30.08,North,9,8.0,12.0,68,0.00,,,0.00,,2013-03-08 23:42:00,
2013-03-08 18:52:00,61.0,51.0,30.08,NNE,30,6.0,13.0,69,0.00,,,0.00,,2013-03-08 23:52:00,
2013-03-08 19:02:00,61.0,51.0,30.08,NNE,27,6.0,13.0,70,0.00,,,0.00,,2013-03-09 00:02:00,
2013-03-08 19:12:00,61.0,51.0,30.08,NNE,27,6.0,13.0,70,0.00,,,0.00,,2013-03-09 00:12:00,
2013-03-08 19:22:00,61.0,52.0,30.09,NE,36,6.0,12.0,71,0.00,,,0.00,,2013-03-09 00:22:00,
2013-03-08 19:32:00,60.0,51.0,30.09,NNE,24,4.0,8.0,72,0.00,,,0.00,,2013-03-09 00:32:00,
2013-03-08 19:42:00,60.0,51.0,30.09,NNE,24,4.0,8.0,72,0.00,,,0.00,,2013-03-09 00:42:00,
2013-03-08 19:52:00,60.0,51.0,30.09,NNE,27,3.0,9.0,73,0.00,,,0.00,,2013-03-09 00:52:00,
2013-03-08 20:02:00,60.0,52.0,30.11,NNE,28,1.0,3.0,74,0.00,,,0.00,,2013-03-09 01:02:00,
2013-03-08 20:12:00,59.0,51.0,30.11,NNE,28,0.0,3.0,75,0.00,,,0.00,,2013-03-09 01:12:00,
2013-03-08 20:22:00,59.0,51.0,30.11,NNE,28,0.0,3.0,75,0.00,,,0.00,,2013-03-09 01:22:00,
2013-03-08 20:32:00,58.0,50.0,30.11,NNE,30,0.0,5.0,75,0.00,,,0.00,,2013-03-09 01:32:00,
2013-03-08 20:42:00,58.0,50.0,30.11,NNE,30,0.0,5.0,75,0.00,,,0.00,,2013-03-09 01:42:00,
2013-03-08 20:51:00,57.0,50.0,30.11,NNE,30,0.0,2.0,76,0.00,,,0.00,,2013-03-09 01:51:00,
2013-03-08 21:01:00,57.0,50.0,30.11,NNE,30,2.0,3.0,77,0.00,,,0.00,,2013-03-09 02:01:00,
2013-03-08 21:11:00,57.0,50.0,30.11,NNE,30,2.0,3.0,77,0.00,,,0.00,,2013-03-09 02:11:00,
2013-03-08 21:21:00,57.0,50.0,30.11,NNE,30,2.0,3.0,77,0.00,,,0.00,,2013-03-09 02:21:00,
2013-03-08 21:31:00,56.0,50.0,30.11,NNE,29,2.0,5.0,79,0.00,,,0.00,,2013-03-09 02:31:00,
2013-03-08 21:41:00,55.0,49.0,30.11,NNE,30,3.0,3.0,79,0.00,,,0.00,,2013-03-09 02:41:00,
2013-03-08 21:51:00,55.0,49.0,30.11,NNE,30,3.0,3.0,79,0.00,,,0.00,,2013-03-09 02:51:00,
2013-03-08 22:01:00,55.0,49.0,30.11,NNE,30,2.0,5.0,80,0.00,,,0.00,,2013-03-09 03:01:00,
2013-03-08 22:11:00,55.0,49.0,30.11,NNE,30,2.0,5.0,80,0.00,,,0.00,,2013-03-09 03:11:00,
2013-03-08 22:21:00,56.0,50.0,30.11,NNE,30,2.0,5.0,81,0.00,,,0.00,,2013-03-09 03:21:00,
2013-03-08 22:31:00,55.0,49.0,30.11,NNE,30,2.0,3.0,81,0.00,,,0.00,,2013-03-09 03:31:00,
2013-03-08 22:41:00,55.0,49.0,30.11,NNE,30,2.0,3.0,81,0.00,,,0.00,,2013-03-09 03:41:00,
2013-03-08 22:52:00,55.0,49.0,30.11,NNE,28,3.0,5.0,81,0.00,,,0.00,,2013-03-09 03:52:00,
2013-03-08 23:01:00,55.0,49.0,30.11,NNE,22,3.0,6.0,81,0.00,,,0.00,,2013-03-09 04:01:00,
2013-03-08 23:11:00,55.0,49.0,30.11,NNE,22,3.0,6.0,81,0.00,,,0.00,,2013-03-09 04:11:00,
2013-03-08 23:22:00,55.0,49.0,30.11,North,355,3.0,7.0,80,0.00,,,0.00,,2013-03-09 04:22:00,
2013-03-08 23:32:00,55.0,49.0,30.11,NNE,19,3.0,5.0,79,0.00,,,0.00,,2013-03-09 04:32:00,
2013-03-08 23:42:00,55.0,49.0,30.11,NNE,19,3.0,5.0,79,0.00,,,0.00,,2013-03-09 04:42:00,
2013-03-08 23:51:00,55.0,49.0,30.11,NNE,19,3.0,6.0,79,0.00,,,0.00,,2013-03-09 04:51:00,